Showing default

RISAT-2BR1, 44857

Orbit data source: Space-Track

RISAT-2BR1, 44857 is a payload satellite owned by ISRO (IN) in LEO that was launched on Wed, 11 Dec 2019 UTC via a PSLV-QL launch vehicle from the Sirharikota (SRI). Payload-class satellites include a variety of spacecraft equipped with specific instruments for various scientific and technological missions. These include communications satellites like Starlink; space stations such as the ISS; scientific satellites like the Hubble; Earth observation satellites from companies like Planet Labs, Umbra, and HawkEye 360; GPS; miniature CubeSats for education and research; and military/defense satellites.

Loading next visibility...
Identifier
44857, 2019-089F
Orbit
LEO
Country
Flag of ININ / IND
Related business
Manufacturer
ISRO
Mission
Operational Civil Radar Imaging
Bus & Motor
TECHSAR, Unknown motor
Mass
628 kg wet, 628 kg dry
Launch date (UTC)
2019-12-11 (7 years ago)
Launch vehicle
PSLV-QL
Launch site
Sirharikota (SRI)
Object type
Payload
Rocket body
Debris
Shape & HBR
Hex Cyl + 2 Pan + 1 Dish, 1.1 m
Radar Cross Section
2.910 m², Large (>1 m²)

Expand to show TLE details & history
Last TLE update: 14 hours ago

TLE from 14 hours ago
0 RISAT-2BR1
1 44857U 19089F   26263.19453005  .00001538  00000-0  12458-3 0  9991
2 44857  36.9603 268.1469 0013232 236.4378 123.5101 15.00881374371480
Epoch: 2026-09-20T04:40Z
TLE epoch observation values (Epoch: 2026-09-20T04:40:07.396Z)
Latitude
0.00001°
Longitude
-160.97611°
Altitude
568.379 km
Speed
7.576 km/s
True Right ascension
17h 52m 35s
True Declination
0° 00' 00"
Sunlit
Object was in daylight at epoch
Visualization orbit readout
Latitude
Unknown
Longitude
Unknown
Altitude
Unknown
Speed
Unknown
Apparent Right ascension
Unknown
Apparent Declination
Unknown
Sunlit
N/A
Visualization observer readout
Local Sidereal Time
11:37:13
Azimuth
Unknown
Elevation
Unknown
Doppler factor
Unknown
Orbital elements
Apogee altitude
576.276 km
Perigee altitude
557.896 km
Semi-major axis
6,945.223 km
Eccentricity
0.00132
Inclination
36.9603°
RAAN
268.1469°
Arg. of periapsis
236.4378°
True anomaly
123.63641°
Mean anomaly
123.5101°
Eccentric anomaly
123.57327°
Mean motion
3.74985 °/min
Orbital period
96 mins
BSTAR
0.00012458
Loading maneuver chart data...
Computing Atmospheric mass density...
Loading historical data...
Loading historical data...
Loading historical data...
Loading historical data...
Loading historical data...
Loading historical data...
Loading historical data...

Documentation

Showing up to 5 results
|